[[{"header":{"parameterUnit":"m.s-1","parameterCategory":1,"la1":30.2991,"la2":30.254,"lo1":-89.0895,"lo2":-89.0444,"dy":0.0017,"dx":0.0017,"nx":28,"ny":28,"refTime":"2025-05-21T21:00:00:Z","depth":0,"parameterNumber":2,"parameterNumberName":"U-component_of_WINDS"},"data":[0,0,0,0,0,0,0,0,0,0,0,0,0,0,0,0,0,0,0,0,0,0,0,0,0,0,0,0,0,0,0,0,0,0,0,0,0,0,0,0,0,0,0,0,0,0,0,0,0,0,0,0,0,0,0,0,0,0,2.2576,2.2576,0,2.2572,2.2572,2.2572,2.2514,2.2512,2.2511,2.2509,2.2506,2.2507,2.2508,0,0,0,0,0,0,0,0,0,0,0,0,0,2.2531,2.2532,2.2576,2.2576,2.2576,2.2572,2.2572,2.2572,2.2514,2.2512,2.251,2.2509,2.2505,2.2507,2.2508,0,0,0,0,0,0,0,0,0,0,0,0,0,2.2541,2.2532,2.2576,2.2546,2.2543,2.2572,2.2572,2.2572,2.2514,2.2512,2.251,2.2508,2.2505,2.2507,2.2508,2.2565,0,0,2.2514,2.2515,0,0,0,0,0,0,0,0,2.2541,2.2543,2.2551,2.2548,2.2545,2.2541,2.2555,2.257,2.2515,2.2525,2.2509,2.2507,2.2519,2.252,2.2524,2.2565,2.2565,2.2515,2.2516,2.2517,2.2517,0,0,0,0,0,0,0,2.254,2.2543,2.2574,2.2551,2.2548,2.2533,2.2532,2.2557,2.2535,2.2524,2.252,2.252,2.2517,2.2522,2.2523,2.2565,2.2514,2.2516,2.2517,2.2518,2.2649,2.2651,0,0,0,0,0,0,2.2543,2.2542,2.2574,2.2574,2.2537,2.2535,2.2534,2.2545,2.2534,2.2531,2.2522,2.2518,2.252,2.2521,2.2523,2.2586,2.2517,2.2518,2.2519,2.2647,2.2649,2.2652,0,0,0,0,0,0,2.2543,2.2547,2.2574,2.2557,2.2559,2.2538,2.2551,2.2546,2.2551,2.2533,2.2529,2.2532,2.2518,2.252,2.2554,2.2585,2.2519,2.2521,2.2644,2.2647,2.2651,2.2715,0,0,0,0,0,0,2.2542,2.2547,2.2569,2.2558,2.2561,2.2606,2.2553,2.2547,2.2554,2.2548,2.254,2.2537,2.2517,2.2552,2.2556,2.2587,2.2522,2.2641,2.2645,2.2649,2.271,2.272,2.2729,0,0,0,0,0,2.254,2.2588,2.257,2.2574,2.2587,2.2608,2.261,2.2585,2.2557,2.2578,2.2566,2.2537,2.2582,2.2556,2.256,2.2592,2.2639,2.2644,2.2649,2.2705,2.2718,2.2728,0,0,0,0,0,0,2.2603,2.2586,2.2566,2.2612,2.2612,2.2598,2.2624,2.26,2.2608,2.2602,2.2572,2.2571,2.2609,2.2604,2.2575,2.2645,2.2605,2.2611,2.2646,2.2658,2.2667,2.2667,2.2524,0,0,0,0,0,2.2622,2.2641,2.2625,2.2666,2.2667,2.2646,2.2654,2.2635,2.2634,2.2634,2.2625,2.2625,2.2639,2.2648,2.266,2.2709,2.2705,2.2733,2.2743,2.2751,2.2756,2.2778,2.279,2.2669,2.2669,2.2669,0,0,2.2662,2.2655,2.2668,2.2679,2.2677,2.2695,2.2647,2.267,2.2683,2.2638,2.2668,2.2662,2.266,2.2701,2.2718,2.2698,2.2788,2.2757,2.2764,2.2764,2.2785,2.2796,2.2807,2.2672,2.2672,2.2671,0,0,2.2743,2.2741,2.2773,2.2772,2.2769,2.2755,2.2763,2.2753,2.2746,2.2777,2.2742,2.2758,2.2783,2.2782,2.2785,2.2864,2.2837,2.2869,2.2918,2.294,2.295,2.2958,2.2984,2.2994,2.2875,2.2875,2.2875,0,2.2793,2.282,2.2794,2.2818,2.2822,2.2782,2.2814,2.2814,2.2816,2.2819,2.2797,2.2825,2.2822,2.286,2.2879,2.2884,2.2891,2.2869,2.2951,2.2959,2.2966,2.299,2.3,2.2878,2.2878,2.2878,2.2877,0,2.288,2.2899,2.2926,2.2927,2.2935,2.2963,2.294,2.2951,2.2932,2.2919,2.2949,2.2943,2.2952,2.296,2.2942,2.2996,2.2982,2.2956,2.2915,2.2981,2.3003,2.3013,2.2884,2.2882,2.2881,2.288,0,0,2.3,2.2985,2.2995,2.2994,2.2987,2.3002,2.3028,2.3035,2.3044,2.3047,2.3066,2.3087,2.3062,2.3065,2.3046,2.3066,2.3126,2.3037,2.3036,2.3051,2.3182,2.32,2.3212,2.3109,2.3111,2.3112,2.3181,0,2.3076,2.3119,2.3095,2.3141,2.3157,2.3118,2.3141,2.3138,2.3127,2.3139,2.3127,2.3141,2.3108,2.3109,2.3128,2.3115,2.3152,2.311,2.3125,2.3126,2.3124,2.3224,2.3243,2.3309,2.319,2.3192,2.3193,0,2.3171,2.3176,2.3223,2.321,2.3216,2.3237,2.324,2.3253,2.3249,2.3239,2.3242,2.3218,2.3241,2.3202,2.3233,2.3205,2.321,2.3205,2.3207,2.3205,2.3162,2.3222,2.333,2.3339,2.3206,2.3205,2.3204,0,2.3251,2.3269,2.3299,2.3299,2.3287,2.3301,2.3297,2.3291,2.3296,2.33,2.3303,2.331,2.3313,2.3318,2.3296,2.327,2.3329,2.3289,2.332,2.332,2.3332,2.3331,2.3439,2.334,2.334,2.3339,2.3339,0,2.3337,2.3366,2.3334,2.3352,2.3383,2.3356,2.3387,2.3379,2.3373,2.3388,2.3356,2.3371,2.3342,2.3353,2.3336,2.3362,2.3365,2.3357,2.3351,2.3358,2.3359,2.3359,2.3353,2.3342,2.3341,2.3341,2.334,0,2.343,2.341,2.3439,2.3424,2.3421,2.3445,2.3431,2.3447,2.3434,2.3453,2.3456,2.3434,2.3446,2.3424,2.3434,2.3422,2.3458,2.3447,2.3459,2.3455,2.3486,2.3483,2.3597,2.3609,2.3504,2.3505,2.3506,0,2.3485,2.3507,2.3494,2.3501,2.3498,2.3511,2.3515,2.3489,2.3495,2.3491,2.3507,2.3516,2.3521,2.3541,2.3526,2.3533,2.352,2.3559,2.3521,2.3526,2.3517,2.3515,2.3516,2.3567,2.3568,2.3569,2.357,0,2.3584,2.3573,2.3581,2.3585,2.3591,2.3594,2.3594,2.3601,2.3573,2.3582,2.3592,2.3597,2.3605,2.3614,2.3616,2.3611,2.3585,2.3583,2.3589,2.3595,2.36,2.3595,2.3478,2.3579,2.3579,2.3578,2.3577,2.3577,2.3658,2.3674,2.3667,2.3676,2.3673,2.3673,2.3686,2.3674,2.3682,2.3687,2.3671,2.3685,2.3679,2.3679,2.3677,2.3687,2.3669,2.368,2.3682,2.3685,2.3688,2.3601,2.3688,2.3687,2.3687,2.3687,2.3686,0,2.3753,2.3746,2.3755,2.3755,2.3762,2.3737,2.3735,2.3743,2.3755,2.3752,2.3757,2.3769,2.3776,2.3762,2.3767,2.3778,2.3766,2.378,2.3777,2.3776,2.3705,2.3697,2.3789,2.3789,2.3789,2.3789,2.3789,2.3789,2.3803,2.3828,2.3815,2.3838,2.3831,2.3844,2.3844,2.3844,2.384,2.3854,2.386,2.3851,2.3842,2.3846,2.3851,2.3847,2.3849,2.3866,2.3858,2.3791,2.3781,2.3772,2.3764,2.3868,2.3868,2.3927,2.3927,2.3928]},{"header":{"parameterUnit":"m.s-1","parameterCategory":1,"la1":30.2991,"la2":30.254,"lo1":-89.0895,"lo2":-89.0444,"dy":0.0017,"dx":0.0017,"nx":28,"ny":28,"refTime":"2025-05-21T21:00:00:Z","depth":0,"parameterNumber":3,"parameterNumberName":"V-component_of_WINDS"},"data":[0,0,0,0,0,0,0,0,0,0,0,0,0,0,0,0,0,0,0,0,0,0,0,0,0,0,0,0,0,0,0,0,0,0,0,0,0,0,0,0,0,0,0,0,0,0,0,0,0,0,0,0,0,0,0,0,0,0,2.1769,2.177,0,2.1868,2.1869,2.187,2.1872,2.1871,2.187,2.1869,2.1966,2.1969,2.1973,0,0,0,0,0,0,0,0,0,0,0,0,0,2.1577,2.158,2.1768,2.177,2.1771,2.1867,2.1869,2.187,2.1872,2.1871,2.1869,2.1868,2.1964,2.1969,2.1973,0,0,0,0,0,0,0,0,0,0,0,0,0,2.1666,2.1581,2.1768,2.1784,2.1786,2.1867,2.1869,2.187,2.1873,2.1871,2.1869,2.1867,2.1963,2.1968,2.1974,2.2045,0,0,2.1991,2.1993,0,0,0,0,0,0,0,0,2.1661,2.1673,2.178,2.1783,2.1786,2.1856,2.1837,2.1929,2.1873,2.184,2.1868,2.1866,2.193,2.1938,2.1961,2.2049,2.2053,2.1991,2.1995,2.1997,2.1999,0,0,0,0,0,0,0,2.1655,2.1669,2.1808,2.1782,2.1785,2.1784,2.1795,2.1854,2.1894,2.1842,2.1843,2.1855,2.1931,2.1955,2.1963,2.2055,2.1991,2.1996,2.2,2.2002,2.2204,2.2206,0,0,0,0,0,0,2.1646,2.1664,2.1804,2.1811,2.1718,2.1789,2.1801,2.1835,2.1893,2.19,2.1856,2.1854,2.1947,2.1957,2.1967,2.2052,2.1997,2.2002,2.2006,2.2202,2.2204,2.2206,0,0,0,0,0,0,2.1642,2.1659,2.18,2.1737,2.1755,2.1794,2.1832,2.1838,2.1862,2.1904,2.191,2.1874,2.1946,2.1959,2.2025,2.2055,2.2005,2.201,2.2199,2.2203,2.2205,2.2224,0,0,0,0,0,0,2.1637,2.1657,2.1686,2.1738,2.1759,2.1859,2.1834,2.1841,2.1872,2.1871,2.1922,2.1929,2.1945,2.2017,2.2031,2.2062,2.2014,2.2197,2.2201,2.2204,2.222,2.2227,2.2232,0,0,0,0,0,2.163,2.1687,2.1687,2.1704,2.1795,2.1861,2.1872,2.1892,2.1875,2.1903,2.1929,2.1927,2.205,2.2023,2.2039,2.2073,2.2195,2.22,2.2204,2.2218,2.2226,2.2232,0,0,0,0,0,0,2.1636,2.1694,2.1695,2.1771,2.1811,2.1861,2.1897,2.19,2.1944,2.1941,2.1962,2.1973,2.2039,2.2062,2.2032,2.2143,2.212,2.2128,2.2125,2.2133,2.2139,2.2131,2.2019,0,0,0,0,0,2.1646,2.1696,2.1743,2.1805,2.1825,2.1858,2.1887,2.1898,2.194,2.1957,2.1988,2.2027,2.2074,2.2105,2.2151,2.2224,2.2234,2.2255,2.226,2.2265,2.2271,2.231,2.2319,2.2221,2.2221,2.2221,0,0,2.1668,2.1705,2.1735,2.1807,2.184,2.1889,2.1872,2.1925,2.1961,2.1964,2.2029,2.2053,2.2098,2.2168,2.22,2.2189,2.2301,2.2271,2.2274,2.2278,2.2315,2.2324,2.2333,2.2224,2.2224,2.2223,0,0,2.1732,2.1766,2.1821,2.1854,2.1903,2.1924,2.1937,2.1987,2.2004,2.2069,2.2072,2.2114,2.2196,2.2227,2.2254,2.2329,2.2327,2.2343,2.2373,2.2411,2.2418,2.2425,2.245,2.2459,2.2349,2.2349,2.2349,0,2.1752,2.1828,2.1848,2.1902,2.1932,2.1938,2.1993,2.2023,2.2084,2.2105,2.2093,2.2194,2.2225,2.2301,2.2319,2.2341,2.2355,2.2337,2.2416,2.2423,2.2429,2.2453,2.2463,2.2351,2.235,2.235,2.235,0,2.1849,2.1901,2.1939,2.1999,2.2034,2.2088,2.2115,2.2147,2.2155,2.2177,2.2242,2.228,2.2332,2.2351,2.236,2.2428,2.242,2.2412,2.2389,2.244,2.2463,2.2472,2.2353,2.2352,2.2352,2.2351,0,0,2.1919,2.199,2.2003,2.203,2.2085,2.2125,2.2177,2.223,2.2257,2.2299,2.2342,2.241,2.2403,2.2433,2.2445,2.2477,2.2532,2.2465,2.2466,2.2474,2.2607,2.2612,2.2623,2.2532,2.2534,2.2535,2.2603,0,2.1988,2.2084,2.2103,2.2185,2.2232,2.2238,2.2284,2.2321,2.2343,2.2385,2.2408,2.2455,2.2443,2.246,2.2493,2.2518,2.2558,2.2514,2.257,2.2572,2.2558,2.2635,2.2641,2.2703,2.2612,2.2614,2.2615,0,2.2081,2.2126,2.2213,2.226,2.228,2.2321,2.237,2.2411,2.2453,2.2466,2.2499,2.2507,2.256,2.2535,2.2607,2.2576,2.2601,2.2616,2.2619,2.2624,2.2596,2.264,2.2723,2.2732,2.2629,2.2628,2.2627,0,2.2122,2.2204,2.2266,2.2289,2.2346,2.2374,2.2399,2.2439,2.2469,2.2511,2.253,2.2578,2.2603,2.2639,2.2659,2.2639,2.2729,2.2706,2.2739,2.2739,2.2757,2.2755,2.2843,2.2775,2.2775,2.2774,2.2774,0,2.2196,2.2248,2.2285,2.2323,2.2381,2.2403,2.2459,2.2483,2.2519,2.256,2.2568,2.2606,2.263,2.2672,2.2687,2.2743,2.2755,2.2766,2.2769,2.2764,2.2763,2.278,2.2775,2.2777,2.2776,2.2776,2.2776,0,2.2251,2.2278,2.2346,2.2394,2.2407,2.2448,2.2488,2.2524,2.2546,2.2598,2.2611,2.2644,2.2693,2.2716,2.2776,2.2787,2.285,2.2851,2.2836,2.2837,2.2868,2.2864,2.2969,2.2983,2.2907,2.2907,2.2908,0,2.2296,2.2336,2.2389,2.2418,2.2443,2.249,2.252,2.2543,2.2574,2.2624,2.2653,2.2703,2.2743,2.2821,2.2849,2.2894,2.2896,2.2929,2.2902,2.2896,2.2894,2.2891,2.2894,2.2933,2.2934,2.2935,2.2935,0,2.2372,2.2383,2.2428,2.2477,2.2513,2.2552,2.2591,2.2614,2.2642,2.2676,2.2727,2.2758,2.282,2.2868,2.2916,2.2939,2.2941,2.2944,2.2953,2.2948,2.2938,2.2942,2.2848,2.2941,2.294,2.294,2.294,2.2939,2.2422,2.2458,2.25,2.2549,2.258,2.2616,2.2652,2.2678,2.2721,2.2773,2.2784,2.2837,2.2875,2.294,2.2965,2.3005,2.2997,2.3012,2.3015,2.3018,2.3019,2.2932,2.3014,2.3014,2.3014,2.3014,2.3014,0,2.2497,2.2524,2.2569,2.2623,2.2661,2.2662,2.2704,2.2735,2.2782,2.2819,2.2859,2.2916,2.2962,2.2994,2.3041,2.3067,2.3069,2.3078,2.3076,2.3081,2.3024,2.3011,2.3076,2.3076,2.3076,2.3076,2.3076,2.3076,2.254,2.26,2.2616,2.2691,2.2717,2.277,2.2794,2.2826,2.2856,2.292,2.2959,2.298,2.3014,2.3063,2.3105,2.3113,2.3129,2.3138,2.3145,2.3092,2.3085,2.3079,2.3066,2.3142,2.3142,2.3198,2.3199,2.3199]}]]